TimePDT,TemperatureF,Dew PointF,Humidity,Sea Level PressureIn,VisibilityMPH,Wind Direction,Wind SpeedMPH,Gust SpeedMPH,PrecipitationIn,Events,Conditions,WindDirDegrees,DateUTC
12:21 AM,64.4,53.6,68,29.93,10.0,SSE,3.5,-,N/A,,Overcast,160,2013-05-06 07:21:00
12:55 AM,63.0,53.1,70,29.95,5.0,SE,5.8,-,0.00,Rain,Light Rain,130,2013-05-06 07:55:00
1:55 AM,63.0,55.0,75,29.94,10.0,NE,3.5,-,0.00,,Overcast,40,2013-05-06 08:55:00
2:55 AM,61.0,55.0,81,29.91,4.0,ENE,8.1,-,0.01,Rain,Light Rain,70,2013-05-06 09:55:00
3:17 AM,60.8,55.4,82,29.88,5.0,ENE,8.1,-,0.00,Rain,Light Rain,70,2013-05-06 10:17:00
3:55 AM,61.0,55.0,81,29.90,4.0,ENE,8.1,-,0.01,Rain,Light Rain,60,2013-05-06 10:55:00
4:55 AM,61.0,55.0,81,29.91,10.0,East,5.8,-,0.03,,Overcast,80,2013-05-06 11:55:00
5:36 AM,62.6,53.6,72,29.88,10.0,SE,4.6,-,0.01,,Mostly Cloudy,130,2013-05-06 12:36:00
5:46 AM,62.6,55.4,77,29.89,10.0,Calm,Calm,-,0.01,,Mostly Cloudy,0,2013-05-06 12:46:00
5:55 AM,62.1,55.0,78,29.92,10.0,ESE,3.5,-,0.01,,Overcast,120,2013-05-06 12:55:00
6:45 AM,62.6,55.4,77,29.91,3.0,Calm,Calm,-,0.02,Rain,Rain,0,2013-05-06 13:45:00
6:55 AM,62.1,55.0,78,29.94,7.0,Calm,Calm,-,0.02,Rain,Light Rain,0,2013-05-06 13:55:00
7:20 AM,62.6,55.4,77,29.92,10.0,Calm,Calm,-,0.00,,Overcast,0,2013-05-06 14:20:00
7:55 AM,63.0,54.0,72,29.96,10.0,Calm,Calm,-,0.00,,Overcast,0,2013-05-06 14:55:00
8:55 AM,66.0,55.0,68,29.97,10.0,SSW,6.9,-,N/A,,Overcast,210,2013-05-06 15:55:00
9:55 AM,66.0,55.0,68,29.98,10.0,SSW,9.2,-,N/A,,Overcast,200,2013-05-06 16:55:00
10:55 AM,66.9,53.1,61,29.99,10.0,Variable,3.5,-,N/A,,Mostly Cloudy,0,2013-05-06 17:55:00
11:55 AM,70.0,53.1,55,29.99,10.0,SSW,11.5,18.4,N/A,,Mostly Cloudy,210,2013-05-06 18:55:00
12:55 PM,69.1,52.0,54,29.99,10.0,SSW,8.1,-,N/A,,Mostly Cloudy,200,2013-05-06 19:55:00
1:55 PM,71.1,50.0,47,29.99,10.0,SSE,8.1,-,N/A,,Mostly Cloudy,160,2013-05-06 20:55:00
2:55 PM,69.1,51.1,53,29.99,10.0,South,10.4,18.4,N/A,,Mostly Cloudy,180,2013-05-06 21:55:00
3:55 PM,69.1,48.0,47,29.98,10.0,SSW,8.1,-,N/A,,Mostly Cloudy,200,2013-05-06 22:55:00
4:55 PM,70.0,53.1,55,29.98,10.0,SSW,10.4,-,N/A,,Scattered Clouds,210,2013-05-06 23:55:00
5:55 PM,69.1,48.0,47,29.98,10.0,SSW,8.1,-,N/A,,Partly Cloudy,200,2013-05-07 00:55:00
6:55 PM,66.9,53.1,61,29.98,10.0,SSW,8.1,-,N/A,,Clear,210,2013-05-07 01:55:00
6:58 PM,66.2,53.6,64,29.95,10.0,SSW,8.1,-,N/A,,Partly Cloudy,210,2013-05-07 01:58:00
7:55 PM,64.0,54.0,70,29.99,10.0,SW,4.6,-,N/A,,Partly Cloudy,220,2013-05-07 02:55:00
8:55 PM,63.0,54.0,72,30.01,10.0,Calm,Calm,-,N/A,,Partly Cloudy,0,2013-05-07 03:55:00
9:55 PM,64.0,54.0,70,30.03,10.0,Calm,Calm,-,N/A,,Overcast,0,2013-05-07 04:55:00
10:55 PM,64.0,54.0,70,30.04,10.0,Calm,Calm,-,N/A,,Overcast,0,2013-05-07 05:55:00
11:55 PM,64.0,54.0,70,30.04,10.0,Calm,Calm,-,N/A,,Overcast,0,2013-05-07 06:55:00